DECAYED

STARLINK-1646, 46351 (Decayed)

Orbit data source: Space-Track

STARLINK-1646, 46351 was a payload satellite owned by SpaceX/Seattle (US) in LEO that was launched on Thu, 03 Sep 2020 UTC via an FALCON 9 launch vehicle from the Air Force Eastern Test Range (AFETR). Payload-class satellites include a variety of spacecraft equipped with specific instruments for various scientific and technological missions. These include communications satellites like Starlink; space stations such as the ISS; scientific satellites like the Hubble; Earth observation satellites from companies like Planet Labs, Umbra, and HawkEye 360; GPS; miniature CubeSats for education and research; and military/defense satellites.

Not visible in the next 10 days
Identifier
46351, 2020-062AC
Orbit
Decayed
Country
Flag of USUS
Related business
Manufacturer
SpaceX/Seattle
Mission
Decayed Commercial Communications
Bus & Motor
STARLINK, Unknown motor
Mass
260 kg wet, ~248 kg dry
Launch date (UTC)
2020-09-03 (6 years ago)
Launch vehicle
FALCON 9
Launch site
Air Force Eastern Test Range (AFETR)
Object type
Payload
Rocket body
Debris
Shape & HBR
Box + 1 Pan, 10.1 m
Radar Cross Section
13.562 m², Large (>1 m²)

Expand to show TLE details & history
Last TLE update: 1 month ago

TLE from 1 month ago
0 STARLINK-1646
1 46351U 20062AC  26222.65071078  .09927755  12505-4  52480-3 0  9990
2 46351  53.0131 285.4270 0006749 313.6104  46.4382 16.42300536329209
Epoch: 2026-08-10T15:37Z
TLE epoch observation values (Epoch: 2026-08-10T15:37:01.411Z)
Latitude
-0.00005°
Longitude
92.04078°
Altitude
157.577 km
Speed
7.815 km/s
True Right ascension
19h 01m 42s
True Declination
0° 00' 00"
Sunlit
Object was in full shadow at epoch
Visualization orbit readout
Latitude
Unknown
Longitude
Unknown
Altitude
Unknown
Speed
Unknown
Apparent Right ascension
Unknown
Apparent Declination
Unknown
Sunlit
N/A
Visualization observer readout
Local Sidereal Time
06:32:38
Azimuth
Unknown
Elevation
Unknown
Doppler factor
Unknown
Orbital elements
Apogee altitude
164.396 km
Perigee altitude
155.571 km
Semi-major axis
6,538.12 km
Eccentricity
0.00067
Inclination
53.0131°
RAAN
285.427°
Arg. of periapsis
313.6104°
True anomaly
46.49427°
Mean anomaly
46.4382°
Eccentric anomaly
46.46623°
Mean motion
4.10548 °/min
Orbital period
87.69 mins
BSTAR
0.0005248
Loading maneuver chart data...
Computing Atmospheric mass density...

Documentation

Showing up to 5 results
|